When you browse on this site, cookies collect data to enhance your experience and personalize the content and advertising you see.
Visit our Privacy Policy to learn more. By continuing to use the site, you agree to this use of cookies and data.
  • In Austria
  • List of Countries
  • For 7 days
  • Water Temperature
  • Satellite Maps
  • Weather Map
  • News
  • Weather Widgets
  • user-avatar
    Login

    Hourly Weather Ondjiwa

    Today, 21 July, Sunday

    Time Temperature Precipitation Wind Pressure Humidity
    00:00 +15°C° 0 mm 2 mps 669 mmHg 22%
    01:00 +14°C° 0 mm 2 mps 668 mmHg 24%
    02:00 +13°C° 0 mm 2 mps 668 mmHg 25%
    03:00 +13°C° 0 mm 2 mps 669 mmHg 25%
    04:00 +11°C° 0 mm 3 mps 669 mmHg 26%
    05:00 +10°C° 0 mm 2 mps 669 mmHg 27%
    06:00 +10°C° 0 mm 2 mps 669 mmHg 28%
    07:00 +10°C° 0 mm 2 mps 669 mmHg 30%
    08:00 +14°C° 0 mm 3 mps 671 mmHg 25%
    09:00 +20°C° 0 mm 3 mps 672 mmHg 20%
    10:00 +25°C° 0 mm 4 mps 673 mmHg 15%
    11:00 +27°C° 0 mm 4 mps 672 mmHg 13%
    12:00 +29°C° 0 mm 4 mps 672 mmHg 10%
    13:00 +32°C° 0 mm 4 mps 672 mmHg 8%
    14:00 +32°C° 0 mm 4 mps 671 mmHg 7%
    15:00 +32°C° 0 mm 4 mps 670 mmHg 7%
    16:00 +31°C° 0 mm 3 mps 670 mmHg 6%
    17:00 +27°C° 0 mm 3 mps 669 mmHg 8%
    18:00 +24°C° 0 mm 2 mps 669 mmHg 10%
    19:00 +19°C° 0 mm 2 mps 668 mmHg 12%
    20:00 +18°C° 0 mm 2 mps 669 mmHg 13%
    21:00 +17°C° 0 mm 2 mps 669 mmHg 14%
    22:00 +16°C° 0 mm 3 mps 669 mmHg 14%
    23:00 +16°C° 0 mm 3 mps 669 mmHg 15%

    Tomorrow, 22 July, Monday

    Time Temperature Precipitation Wind Pressure Humidity
    00:00 +14°C° 0 mm 3 mps 668 mmHg 16%
    01:00 +13°C° 0 mm 3 mps 668 mmHg 16%
    02:00 +12°C° 0 mm 3 mps 668 mmHg 17%
    03:00 +11°C° 0 mm 3 mps 668 mmHg 18%
    04:00 +10°C° 0 mm 3 mps 668 mmHg 18%
    05:00 +10°C° 0 mm 3 mps 668 mmHg 19%
    06:00 +9°C° 0 mm 2 mps 668 mmHg 20%
    07:00 +8°C° 0 mm 2 mps 669 mmHg 21%
    08:00 +14°C° 0 mm 2 mps 670 mmHg 17%
    09:00 +18°C° 0 mm 3 mps 671 mmHg 13%
    10:00 +24°C° 0 mm 3 mps 672 mmHg 9%
    11:00 +26°C° 0 mm 3 mps 672 mmHg 8%
    12:00 +28°C° 0 mm 3 mps 671 mmHg 7%
    13:00 +30°C° 0 mm 3 mps 671 mmHg 6%
    14:00 +31°C° 0 mm 3 mps 670 mmHg 6%
    15:00 +31°C° 0 mm 2 mps 669 mmHg 6%
    16:00 +31°C° 0 mm 1 mps 669 mmHg 6%
    17:00 +27°C° 0 mm 1 mps 668 mmHg 8%
    18:00 +24°C° 0 mm 2 mps 667 mmHg 9%
    19:00 +19°C° 0 mm 2 mps 667 mmHg 11%
    20:00 +18°C° 0 mm 2 mps 667 mmHg 12%
    21:00 +17°C° 0 mm 2 mps 667 mmHg 12%
    22:00 +16°C° 0 mm 2 mps 668 mmHg 13%
    23:00 +15°C° 0 mm 2 mps 667 mmHg 13%

    Day after tomorrow, 23 July, Tuesday

    Time Temperature Precipitation Wind Pressure Humidity
    00:00 +15°C° 0 mm 2 mps 667 mmHg 13%
    01:00 +14°C° 0 mm 2 mps 667 mmHg 14%
    02:00 +13°C° 0 mm 2 mps 667 mmHg 15%
    03:00 +12°C° 0 mm 2 mps 667 mmHg 17%
    04:00 +10°C° 0 mm 2 mps 666 mmHg 18%
    05:00 +10°C° 0 mm 2 mps 667 mmHg 20%
    06:00 +10°C° 0 mm 2 mps 667 mmHg 22%
    07:00 +9°C° 0 mm 2 mps 668 mmHg 24%
    08:00 +14°C° 0 mm 3 mps 669 mmHg 21%
    09:00 +20°C° 0 mm 3 mps 670 mmHg 17%
    10:00 +26°C° 0 mm 4 mps 671 mmHg 13%
    11:00 +28°C° 0 mm 4 mps 671 mmHg 12%
    12:00 +30°C° 0 mm 4 mps 670 mmHg 11%
    13:00 +33°C° 0 mm 4 mps 669 mmHg 10%
    14:00 +33°C° 0 mm 3 mps 669 mmHg 10%
    15:00 +32°C° 0 mm 2 mps 669 mmHg 9%
    16:00 +32°C° 0 mm 2 mps 668 mmHg 9%
    17:00 +29°C° 0 mm 2 mps 668 mmHg 12%
    18:00 +26°C° 0 mm 2 mps 667 mmHg 15%
    19:00 +21°C° 0 mm 2 mps 666 mmHg 17%
    20:00 +20°C° 0 mm 2 mps 666 mmHg 19%
    21:00 +19°C° 0 mm 2 mps 667 mmHg 20%
    22:00 +17°C° 0 mm 2 mps 667 mmHg 21%
    23:00 +17°C° 0 mm 2 mps 667 mmHg 22%

    24 July, Wednesday

    Time Temperature Precipitation Wind Pressure Humidity
    00:00 +16°C° 0 mm 2 mps 666 mmHg 22%
    01:00 +15°C° 0 mm 2 mps 666 mmHg 22%
    02:00 +14°C° 0 mm 2 mps 666 mmHg 24%
    03:00 +13°C° 0 mm 1 mps 666 mmHg 25%
    04:00 +12°C° 0 mm 1 mps 666 mmHg 26%
    05:00 +12°C° 0 mm 1 mps 666 mmHg 27%
    06:00 +12°C° 0 mm 1 mps 667 mmHg 27%
    07:00 +12°C° 0 mm 2 mps 667 mmHg 27%
    08:00 +16°C° 0 mm 2 mps 668 mmHg 22%
    09:00 +21°C° 0 mm 3 mps 669 mmHg 18%
    10:00 +26°C° 0 mm 4 mps 670 mmHg 13%
    11:00 +28°C° 0 mm 4 mps 670 mmHg 12%
    12:00 +30°C° 0 mm 4 mps 669 mmHg 11%
    13:00 +34°C° 0 mm 4 mps 669 mmHg 9%
    14:00 +34°C° 0 mm 4 mps 668 mmHg 9%
    15:00 +34°C° 0 mm 3 mps 668 mmHg 9%
    16:00 +34°C° 0 mm 3 mps 668 mmHg 9%
    17:00 +30°C° 0 mm 3 mps 667 mmHg 12%
    18:00 +27°C° 0 mm 2 mps 667 mmHg 14%
    19:00 +23°C° 0 mm 2 mps 666 mmHg 17%
    20:00 +21°C° 0 mm 2 mps 667 mmHg 18%
    21:00 +20°C° 0 mm 2 mps 667 mmHg 19%
    22:00 +19°C° 0 mm 2 mps 667 mmHg 20%
    23:00 +18°C° 0 mm 2 mps 667 mmHg 22%

    25 July, Thursday

    Time Temperature Precipitation Wind Pressure Humidity
    00:00 +17°C° 0 mm 2 mps 667 mmHg 23%
    01:00 +16°C° 0 mm 2 mps 667 mmHg 24%
    02:00 +15°C° 0 mm 2 mps 667 mmHg 26%
    03:00 +14°C° 0 mm 2 mps 667 mmHg 27%
    04:00 +13°C° 0 mm 2 mps 667 mmHg 29%
    05:00 +13°C° 0 mm 2 mps 667 mmHg 30%
    06:00 +13°C° 0 mm 2 mps 668 mmHg 31%
    07:00 +12°C° 0 mm 2 mps 668 mmHg 31%
    08:00 +16°C° 0 mm 3 mps 669 mmHg 25%
    09:00 +21°C° 0 mm 4 mps 670 mmHg 19%
    10:00 +26°C° 0 mm 5 mps 671 mmHg 13%
    11:00 +28°C° 0 mm 4 mps 671 mmHg 11%
    12:00 +30°C° 0 mm 4 mps 670 mmHg 9%
    13:00 +34°C° 0 mm 4 mps 670 mmHg 8%
    14:00 +34°C° 0 mm 4 mps 670 mmHg 8%
    15:00 +34°C° 0 mm 3 mps 669 mmHg 8%
    16:00 +34°C° 0 mm 2 mps 669 mmHg 8%
    17:00 +30°C° 0 mm 2 mps 668 mmHg 11%
    18:00 +26°C° 0 mm 2 mps 668 mmHg 13%
    19:00 +23°C° 0 mm 2 mps 668 mmHg 15%
    20:00 +21°C° 0 mm 2 mps 668 mmHg 16%
    21:00 +20°C° 0 mm 2 mps 668 mmHg 18%
    22:00 +18°C° 0 mm 2 mps 668 mmHg 19%
    23:00 +17°C° 0 mm 2 mps 668 mmHg 20%

    26 July, Friday

    Time Temperature Precipitation Wind Pressure Humidity
    00:00 +17°C° 0 mm 2 mps 668 mmHg 21%
    01:00 +16°C° 0 mm 2 mps 668 mmHg 22%
    02:00 +15°C° 0 mm 2 mps 668 mmHg 22%
    03:00 +15°C° 0 mm 2 mps 668 mmHg 23%
    04:00 +14°C° 0 mm 2 mps 668 mmHg 23%
    05:00 +14°C° 0 mm 2 mps 668 mmHg 24%
    06:00 +13°C° 0 mm 2 mps 669 mmHg 25%
    07:00 +13°C° 0 mm 2 mps 669 mmHg 25%
    08:00 +17°C° 0 mm 3 mps 670 mmHg 20%
    09:00 +22°C° 0 mm 4 mps 671 mmHg 15%
    10:00 +28°C° 0 mm 5 mps 672 mmHg 10%
    11:00 +30°C° 0 mm 5 mps 672 mmHg 9%
    12:00 +33°C° 0 mm 5 mps 671 mmHg 8%
    13:00 +34°C° 0 mm 5 mps 671 mmHg 6%
    14:00 +34°C° 0 mm 5 mps 670 mmHg 6%
    15:00 +34°C° 0 mm 5 mps 669 mmHg 6%
    16:00 +34°C° 0 mm 4 mps 669 mmHg 6%
    17:00 +29°C° 0 mm 3 mps 668 mmHg 8%
    18:00 +26°C° 0 mm 3 mps 668 mmHg 10%
    19:00 +21°C° 0 mm 2 mps 667 mmHg 12%
    20:00 +20°C° 0 mm 2 mps 667 mmHg 14%
    21:00 +19°C° 0 mm 2 mps 668 mmHg 15%
    22:00 +17°C° 0 mm 2 mps 668 mmHg 16%
    23:00 +17°C° 0 mm 2 mps 668 mmHg 17%
    Show more